Location: Krakow
(50.0830°N, 19.9170°E)
Time: 00:00:23
(UTC+01:00)

Courier 1B Rocket - Pass Details

Date: 14 December 2023
Orbit: 920 x 1202 km, 28.2° (Epoch: 24 February)

Event Time Altitude Azimuth Distance (km) Brightness Sun altitude
Rises 09:56:05 0° 229° (SW) 3,967 8.4 13.5°
Reaches altitude 10° 10:01:26 10° 198° (SSW) 2,933 8.4 13.8°
Maximum altitude 10:03:26 11° 182° (S) 2,807 8.9 14.0°
Drops below altitude 10° 10:05:24 10° 165° (SSE) 2,872 10.2 14.1°
Sets 10:10:26 0° 133° (SE) 3,746 9.3 14.4°
